Location: Piedmont
(45.8748°N, 74.1254°W)
Time: 13:28:06
(UTC+00:00)

N. Korean satellite - Pass Details

Date: 06 December 2021
Orbit: 446 x 491 km, 97.3° (Epoch: 18 January)

Event Time Altitude Azimuth Distance (km) Brightness Sun altitude
Rises 10:03:44 0° 15° (NNE) 2,464 10.2 -23.4°
Reaches altitude 10° 10:05:48 10° 20° (NNE) 1,584 9.3 -23.1°
Maximum altitude 10:09:09 59° 100° (E) 523 6.9 -22.5°
Drops below altitude 10° 10:12:28 10° 181° (S) 1,570 9.2 -21.9°
Sets 10:14:30 0° 186° (S) 2,439 10.2 -21.6°
